Kurniawan Riyadi

Scout - Persija
2 Jul 2028
Sunday
Process

Personality

Adaptability (12) Ambition (20) Controversy (14) Loyalty (13) Pressure (11) Professionalism (7) Sportsmanship (7) Temperament (5)

Profile

Coaching Style Democratic
License National B
Determination 3
Man Management 9
Motivating 7
Discipline 3
Job Satisfaction
100%
Fatigue
0%
Role Scout
Wage 57.6K p/w
Contract 14.03.2029

Performance

Behaviour Good
Training Effectiveness
31%
Player Development
25%
Injury Prevention
35%
Tactical Implementation
20%

Recent Events

Assessed a player now
Attended a recruitment meeting now
Attended a recruitment meeting now
Attended a recruitment meeting now
Assessed a player now
Assessed a player now
Assessed a player now
Assessed a player 7d ago

Currently Monitoring

244
Player Club Status Ability Confidence Watched Last Observed Latest Vote
Maxime Sivis Orenburg Active 129 / 119 40% 2 01.07.2028 -
Greg Docherty Barrow AFC Active 106 / 114 40% 1 01.07.2028 -
Sam Lammers PSV Active 127 / 128 40% 2 30.06.2028 -
Leonardo Candellone Juve Stabia Active 144 / 131 40% 2 30.06.2028 -
Sirlord Conteh Heidenheim Active 116 / 120 40% 2 28.06.2028 -
Zach Hemming Chesterfield Active 130 / 123 40% 3 28.06.2028 -
David Okereke Cremonese Active 148 / 120 40% 1 28.06.2028 -
Agustín Palavecino Estudiantes Active 141 / 120 40% 1 27.06.2028 -
Cesare Galeotti Trapani Active 124 / 114 40% 2 26.06.2028 -
Alex Palmer Ipswich Town Active 126 / 130 40% 1 26.06.2028 -
Julián Illanes Carrarese Active 117 / 121 40% 2 25.06.2028 -
Baldovino Cimino Cosenza Active 127 / 123 40% 1 25.06.2028 -
Edwuin Cetré Estudiantes Active 108 / 131 40% 2 24.06.2028 -
Renato Sanches Leiria Active 125 / 142 40% 1 24.06.2028 -
Ilias Bronkhorst Huddersfield Town Active 128 / 112 40% 1 24.06.2028 -
Maximiliano Salas River Plate Active 116 / 128 40% 1 24.06.2028 -
Dmitry Vorobjov Spartak Moscow Active 140 / 120 40% 1 21.06.2028 -
Riccardo Turicchia Triestina Active 107 / 125 40% 1 21.06.2028 -
Denil Maldonado Rubin Active 127 / 125 40% 1 21.06.2028 -
Gabriele Baldi Guidonia Montecelio Active 121 / 110 40% 2 20.06.2028 -
Marco Bleve Lecce Active 113 / 128 40% 1 20.06.2028 -
Miguel Loureiro Deportivo La Coruña Active 138 / 136 40% 2 18.06.2028 -
Abdoul Guiebré Ascoli Active 103 / 120 40% 1 18.06.2028 -
Tom Hamer Lincoln City Active 111 / 116 40% 1 17.06.2028 -
Nemanja Žunić Mladost Lucani Active 117 / 123 40% 1 17.06.2028 -
Emanuel Coronel Rosario Central Active 111 / 129 40% 1 16.06.2028 -
Gabriele Corbo Campobasso Active 108 / 112 40% 1 16.06.2028 -
Daniel Barrea Godoy Cruz Active 130 / 123 40% 1 14.06.2028 -
Gennaro Tutino Sampdoria Active 122 / 133 40% 1 14.06.2028 -
Leonardo Marson Gubbio Active 132 / 114 40% 1 13.06.2028 -
Joaquín Blázquez Talleres Active 122 / 132 40% 1 13.06.2028 -
Francisco Salerno Defensores Unidos Active 123 / 104 40% 1 12.06.2028 -
Brian Mansilla CSKA Moscow Active 110 / 121 40% 1 11.06.2028 -
Simone Scuffet Pisa Active 124 / 138 40% 3 10.06.2028 -
Stefano Filigheddu Monopoli Active 116 / 120 40% 2 10.06.2028 -
Denzel Jubitana Neftchi Active 123 / 122 40% 2 10.06.2028 -
Ignacio Ramírez Newell's Old Boys Active 119 / 124 40% 1 10.06.2028 -
Randy Nteka Krasnodar Active 139 / 118 40% 1 09.06.2028 -
Alexandr Rudenko Lokomotiv Moscow Active 104 / 121 40% 1 09.06.2028 -
Andrea Zaccagno Torres Active 117 / 122 40% 5 07.06.2028 -
Matías Daniele Belgrano Active 115 / 135 40% 2 07.06.2028 -
Antonio Casas Venezia Active 133 / 118 40% 1 07.06.2028 -
Evgeny Latyshonok Nizhniy Novgorod Active 110 / 129 40% 3 06.06.2028 -
Nathan Bishop AFC Wimbledon Active 135 / 115 40% 1 06.06.2028 -
Lautaro Morales Lanús Active 141 / 134 40% 2 05.06.2028 -
Mateo Bajamich Atlético Tucumán Active 135 / 128 40% 1 05.06.2028 -
Nahuel Galardi Maipú Active 130 / 118 40% 1 05.06.2028 -
Miroslav Bogosavac Akhmat Grozny Active 140 / 126 40% 2 04.06.2028 -
Valerio Boffelli Cavese Active 104 / 119 40% 4 03.06.2028 -
Arthur Augusto Semen Padang Active 124 / 111 40% 2 03.06.2028 -
David Carmo Olympiacos Active 127 / 150 40% 1 02.06.2028 -
Vicente Poggi Godoy Cruz Active 108 / 132 40% 1 02.06.2028 -
Remco Balk Twente Active 117 / 115 40% 1 01.06.2028 -
Nahuel Bustos Talleres Active 107 / 124 40% 1 01.06.2028 -
Luke McGee Tranmere Rovers Active 89 / 99 40% 2 31.05.2028 -
Adam Bareiro Boca Juniors Active 116 / 131 40% 1 31.05.2028 -
Christian Walton Ipswich Town Active 126 / 139 40% 1 31.05.2028 -
Filippo Manfrin Arzignano Active 123 / 119 40% 5 29.05.2028 -
Luke Southwood Bristol Rovers Active 102 / 113 40% 1 29.05.2028 -
Thiago Cardozo Unión de Santa Fe Active 129 / 130 40% 1 28.05.2028 -
Rustam Yatimov Rostov Active 136 / 123 40% 3 20.05.2028 -
Jordan Amissah Burton Albion Active 113 / 110 40% 2 17.05.2028 -
Alex Bass Peterborough United Active 124 / 118 40% 4 17.05.2028 -
Riccardo Gagno Vicenza Active 133 / 129 40% 4 16.05.2028 -
Sergio Barlocco Trento Active 109 / 126 40% 2 15.05.2028 -
Corey Addai Barnsley Active 106 / 113 40% 2 14.05.2028 -
Tommaso Nobile Renate Active 111 / 120 40% 1 14.05.2028 -
Raul Steffens AVS Active 111 / 112 40% 5 10.05.2028 -
Antonino Viola Catania Active 102 / 111 40% 1 10.05.2028 -
Bogdan Ovsyannikov Orenburg Active 101 / 111 40% 2 08.05.2028 -
Will Mannion Charlton Athletic Active 104 / 119 40% 5 07.05.2028 -
Matías Budiño Colón Active 120 / 110 40% 2 07.05.2028 -
Kristjan Matošević Triestina Active 100 / 112 40% 2 28.04.2028 -
Elia Boseggia Novara Active 118 / 128 40% 1 23.04.2028 -
Nikolai Rehnen Grimsby Town Active 115 / 107 40% 3 22.04.2028 -
Evgeny Staver Rubin Active 122 / 110 40% 2 21.04.2028 -
Joel Pereira Reading Active 115 / 109 40% 2 18.04.2028 -
Matteo Raffaelli Ascoli Active 115 / 115 40% 1 18.04.2028 -
Dylan Moody Cheltenham Town Active 99 / 127 40% 2 17.04.2028 -
Gianluca Saro Foggia Active 107 / 117 40% 3 14.04.2028 -
George Evans Exeter City Active 95 / 127 40% 1 12.04.2028 -
Bailey Peacock-Farrell Blackpool Active 126 / 116 40% 2 06.04.2028 -
Andrea Sergio Mazza Giana Erminio Active 109 / 103 40% 1 06.04.2028 -
Davide Mastrantonio Latina Active 108 / 112 40% 1 05.04.2028 -
Facundo Sanguinetti Banfield Active 117 / 122 40% 1 05.04.2028 -
Alejandro Rodríguez Melgar Active 145 / 134 40% 2 03.04.2028 -
Alexei Rojas Fedorushchenko Barrow AFC Active 129 / 121 40% 1 01.04.2028 -
Shamal George Doncaster Rovers Active 101 / 114 40% 3 29.03.2028 -
Gianmarco Vannucchi Benevento Active 105 / 129 40% 1 29.03.2028 -
Lukas Wedl Admira Wacker Active 92 / 112 40% 2 22.03.2028 -
Matteo Sorzi Carpi Active 107 / 104 40% 1 16.03.2028 -
Luca Gemello Perugia Active 111 / 120 40% 1 12.03.2028 -
Daniele Sommariva Gillingham Active 96 / 109 40% 1 09.03.2028 -
Anton Mitryushkin Lokomotiv Moscow Active 103 / 116 40% 1 07.03.2028 -
Francesco D'Alterio Ternana Active 135 / 124 40% 1 05.03.2028 -
Temirlan Anarbekov Kairat Active 117 / 115 40% 1 26.02.2028 -
Thomas Vettorel Siracusa Active 106 / 110 40% 1 22.02.2028 -
Petr Kosarevskiy Sibir Active 112 / 107 40% 1 20.02.2028 -
Dmytro Matsapura Kryvbas Active 93 / 116 40% 1 16.02.2028 -
Ivan Lomaev Ufa Active 137 / 108 40% 1 07.02.2028 -
Semuel Pizzignacco Monza Active 127 / 126 40% 1 03.02.2028 -
Will Dennis Milton Keynes Dons Active 99 / 121 40% 1 03.02.2028 -
Vladimir Nazarov Pakhtakor Active 106 / 125 40% 2 31.01.2028 -
Muhamad Riyandi Dewa United Active 92 / 80 44% 1 31.01.2028 Needs More Info
Muhammadyusuf Sobirov Bunyodkor Active 122 / 122 40% 1 31.01.2028 -
Ilja Pomazun Spartak Moscow Active 130 / 121 40% 1 24.01.2028 -
Jakub Ojrzyński Orebro Active 95 / 123 40% 1 17.01.2028 -
Miguel Morro Burgos Active 116 / 119 40% 1 14.01.2028 -
Myles Roberts Cambridge United Active 90 / 104 40% 1 13.01.2028 -
Rostislav Soldatenko Torpedo Moscow Active 94 / 97 40% 1 12.01.2028 -
German Onugkha CSKA Moscow Active 125 / 125 40% 1 01.01.2028 -
Flavio Junior Bianchi Bari Active 116 / 107 40% 1 01.01.2028 -
Derik Lacerda Kawasaki Frontale Active 137 / 131 40% 1 31.12.2027 -
Temirkan Sundukov Dinamo Makhachkala Active 126 / 115 40% 1 27.12.2027 -
Roman Yezhov Sochi Active 96 / 121 40% 1 26.12.2027 -
Luca Vido Union Brescia Active 131 / 124 40% 1 26.12.2027 -
Agustín Dattola Almirante Brown Active 120 / 115 40% 2 24.12.2027 -
Vyacheslav Litvinov Sochi Active 118 / 116 40% 1 24.12.2027 -
Juanpe Gamba Osaka Active 107 / 114 40% 1 20.12.2027 -
Tomasz Wójtowicz Lechia Active 126 / 108 40% 1 20.12.2027 -
Tobías Rubio Racing Club Active 137 / 110 40% 4 19.12.2027 -
Doniyor Abdumannopov Andijon Active 116 / 113 40% 1 19.12.2027 -
Zelimkhan Bakaev Lokomotiv Moscow Active 122 / 132 40% 2 16.12.2027 -
Leonel Pollacchi San Telmo Active 104 / 121 40% 1 13.12.2027 -
Stefan Lončar Akron Active 100 / 122 40% 2 10.12.2027 -
Mauricio Vera Bhayangkara Presisi Active 129 / 112 40% 6 10.12.2027 -
Basilio Basilio Tirana Active 104 / 107 40% 1 09.12.2027 -
Gabriel Díaz Patronato Active 129 / 110 40% 1 08.12.2027 -
Benoît Nyssen Zulte Waregem Active 118 / 104 40% 1 02.12.2027 -
Malcom Braida Boca Juniors Active 113 / 139 40% 2 30.11.2027 -
Leonel Bucca Independiente Rivadavia Active 113 / 126 40% 2 29.11.2027 -
Juan Álvarez Arema Active 114 / 113 40% 1 29.11.2027 Needs More Info
Jan Franc Lucumí Santa Fe Active 103 / 109 40% 1 28.11.2027 -
Wesley Pomba Rukh Active 99 / 113 40% 1 28.11.2027 -
Tomás Porra Barracas Central Active 131 / 126 40% 5 27.11.2027 -
Dmitry Skopintsev Dinamo Moscow Active 109 / 109 40% 1 27.11.2027 -
Mikkel Ceïde Bodo/Glimt Active 133 / 126 40% 2 23.11.2027 -
Juan Cruz Rattalino San Lorenzo Active 103 / 113 40% 1 23.11.2027 -
Matias Siltanen Malmo FF Active 130 / 137 40% 1 18.11.2027 -
Victor Hernandez Santa Fe Active 123 / 135 40% 4 17.11.2027 -
Alejo Montero Newell's Old Boys Active 110 / 126 40% 2 17.11.2027 -
Nikita Kakkoev Nizhniy Novgorod Active 120 / 127 40% 1 16.11.2027 -
Santiago Martínez Godoy Cruz Active 135 / 128 40% 2 14.11.2027 -
Thijmen Goppel Bali United Active 102 / 107 40% 1 14.11.2027 -
Lucas Lima Ceará Active 97 / 104 40% 1 12.11.2027 -
Edgardo Fariña Nizhniy Novgorod Active 135 / 120 40% 2 10.11.2027 -
Santiago Fernández Talleres Active 112 / 136 40% 2 10.11.2027 -
Stefan Kovač Baltika Active 115 / 126 40% 1 09.11.2027 -
Alexandr Ektov Nizhniy Novgorod Active 111 / 121 40% 1 05.11.2027 -
Armando Méndez Newell's Old Boys Active 127 / 131 40% 2 03.11.2027 -
Kevin Cuesta Young Boys Active 139 / 116 40% 1 03.11.2027 -
Miloš Brnović Arsenal Tula Active 121 / 105 40% 3 31.10.2027 -
Álex Martín Córdoba Active 111 / 115 40% 1 27.10.2027 -
Christian Oliva Santos Active 124 / 119 40% 1 27.10.2027 -
Mauricio Cardillo San Lorenzo Active 109 / 115 40% 2 26.10.2027 -
Enzo Silcan Almagro Active 126 / 113 40% 1 26.10.2027 -
Juan Esteban Ávalo Aguilas Doradas Active 98 / 124 40% 2 24.10.2027 -
Matías Arias Vélez Active 105 / 128 40% 1 23.10.2027 -
Rominigue Kouamé Kawasaki Frontale Active 123 / 114 40% 1 22.10.2027 -
Gonzalo Flores Almirante Brown Active 124 / 121 40% 1 22.10.2027 -
Eldar Ćivić Baltika Active 106 / 123 40% 2 20.10.2027 -
Bruno Palazzo Nueva Chicago Active 103 / 125 40% 1 16.10.2027 -
Ousmane Ndong Akhmat Grozny Active 94 / 123 40% 1 15.10.2027 -
Gábor Szalai Ferencvaros Active 133 / 108 40% 1 14.10.2027 -
Mauro Valiente Estudiantes Active 122 / 120 40% 1 12.10.2027 -
Marcos Astina Borneo Active 102 / 120 40% 1 11.10.2027 -
Daniel Bassi Lillestrom Active 111 / 137 40% 1 05.10.2027 -
Maxim Sidorov Akhmat Grozny Active 109 / 116 40% 1 02.10.2027 -
Alejo Osella Independiente Rivadavia Active 117 / 126 40% 2 01.10.2027 -
Tomás Belmonte Boca Juniors Active 113 / 131 40% 1 27.09.2027 -
Jhoao Rodríguez Deportes Quindio Active 123 / 124 40% 1 25.09.2027 -
Dmitry Vasiljev Orenburg Active 102 / 127 40% 2 18.09.2027 -
Ignacio Galván Racing Club Active 133 / 125 40% 1 18.09.2027 -
Erik de los Santos Racing Active 100 / 117 40% 1 16.09.2027 -
Diego Campos Bali United Active 95 / 111 40% 2 15.09.2027 -
Kolbeinn Þórðarson IFK Goteborg Active 124 / 110 40% 1 11.09.2027 -
Yeferson Rodallega Envigado Active 102 / 111 40% 2 10.09.2027 -
Matías Sepúlveda Lanús Active 95 / 104 40% 1 03.09.2027 -
Milan Gajić CSKA Moscow Active 142 / 113 40% 1 31.08.2027 -
Jefferson Persebaya Active 116 / 108 40% 1 19.08.2027 -
Diego Vásquez Agropecuario Argentino Active 117 / 105 40% 1 16.08.2027 -
Kostas Galanopoulos Panathinaikos Active 143 / 116 40% 1 16.08.2027 -
Juan David Rueda Alianza Petrolera Active 114 / 114 40% 1 15.08.2027 -
Milton Maciel Ararat-Armenia Active 130 / 108 40% 1 11.08.2027 -
Johan Campaña Patriotas Active 90 / 102 40% 1 11.08.2027 -
Baba Adeeko Wigan Athletic Active 94 / 122 40% 1 06.08.2027 -
Igor Inocêncio Maluku Utara United Active 99 / 108 40% 1 03.08.2027 -
Jhojan Torres Santa Fe Active 136 / 126 40% 1 02.08.2027 -
Matteo Stoppa Campobasso Active 136 / 114 40% 1 02.08.2027 -
Simone Tronchin Südtirol Active 91 / 112 40% 1 27.07.2027 -
Pablo García Gijón Active 91 / 109 40% 1 23.07.2027 -
Matías Ocampo Persebaya Active 114 / 97 40% 1 16.07.2027 -
Samuel Adegbenro FC Copenhagen Active 103 / 123 40% 1 14.07.2027 -
Alexandr Filin Baltika Active 132 / 111 40% 2 08.07.2027 -
Koldo Obieta Borneo Active 86 / 98 41% 1 14.06.2027 -
Hamza El Kaouakibi Südtirol Active 107 / 118 40% 1 14.06.2027 -
Alexandre Ramalingom Persita Active 90 / 115 41% 1 06.06.2027 -
Thom Haye Persib Active 114 / 115 41% 1 01.06.2027 -
Elijas Gunnergård Ortan Ahrobiznes Active 58 / 82 40% 2 27.05.2027 -
Luis Yanes Real Cartagena Active 72 / 103 40% 1 27.05.2027 -
Ahmed Khaled Paralimni Active 76 / 98 40% 2 25.05.2027 -
Dilan Neves Benfica Active 101 / 94 40% 3 24.05.2027 -
João Tavares Porto Active 57 / 65 40% 2 24.05.2027 -
Gabriel Mujica Envigado Active 81 / 99 40% 1 23.05.2027 -
Crisconti Larry El-Kanemi Warriors Active 76 / 77 40% 1 23.05.2027 -
Ousseynou Seck Randers Active 116 / 108 40% 1 22.05.2027 -
Alexandr Soldatenkov Sochi Active 136 / 111 40% 1 22.05.2027 -
Iago Mendonça Borneo Active 89 / 101 40% 1 13.05.2027 -
Ramiro Jara Racing Active 63 / 88 40% 1 08.05.2027 -
Abdullahi Mohammad Kwara United Active 60 / 77 40% 1 08.05.2027 -
Lautaro Gutiérrez Belgrano Active 93 / 102 40% 1 07.05.2027 -
Oscar Acuña Libertad Active 80 / 85 40% 1 07.05.2027 -
Bojan Roganović Torpedo Moscow Active 121 / 119 40% 1 06.05.2027 -
Ejike Opara Vitoria Guimaraes Active 106 / 104 40% 1 02.05.2027 -
Joy Manana AS Bakaridjan Active 75 / 69 40% 1 30.04.2027 -
David Hicks Reading Active 65 / 82 40% 1 30.04.2027 -
Timofey Simanenka Gomel Active 96 / 110 40% 1 28.04.2027 -
Javi Moreno Albacete Active 134 / 103 40% 1 27.04.2027 -
Ivar Jenner Dewa United Active 123 / 119 40% 1 27.04.2027 -
Paulo Vitor Akron Active 98 / 126 40% 1 22.04.2027 -
Ignacio Blanco Girona Active 86 / 99 40% 1 21.04.2027 -
Luka Andrade Montevideo City Torque Active 113 / 100 40% 2 18.04.2027 -
Stanislav Bukatov Salyut Active 70 / 74 40% 1 18.04.2027 -
Leonel Flores Boca Juniors Active 123 / 97 40% 1 17.04.2027 -
Ilja Agapov Ufa Active 93 / 123 40% 1 14.04.2027 -
Rik Mulders Cambuur Active 113 / 106 40% 1 13.04.2027 -
Iker Pozo Rodina Active 93 / 111 40% 1 12.04.2027 -
Adam Gabriel Viktoria Plzen Active 94 / 110 40% 1 08.04.2027 -
Sergey Gaiduk Salyut Active 73 / 74 40% 2 04.04.2027 -
Diego Sekulić Sibenik Active 93 / 100 40% 1 04.04.2027 -
Jules Kalczynski Nimes Active 62 / 100 40% 1 27.03.2027 -
Maximo Ingravidi Colón Active 82 / 105 40% 1 27.03.2027 -
Fábio Jaló Barnsley Active 93 / 100 40% 1 25.03.2027 -
José Mendes Sporting CP Active 64 / 81 40% 1 23.03.2027 -
Sandro Ferreira Sporting CP Active 72 / 71 40% 1 23.03.2027 -
Martim Cunha Porto Active 110 / 101 40% 1 20.03.2027 -
Pedro Lima Sporting CP Active 112 / 130 40% 1 19.03.2027 -
Andrés Murillo Segura FCSB Active 104 / 113 40% 1 18.03.2027 -
Kirill Bolshakov Arsenal Tula Active 92 / 104 40% 1 11.03.2027 -
Kelvin Neijenhuis Feyenoord Active 119 / 102 40% 1 08.03.2027 -
Garrik Levin Chelyabinsk Active 93 / 108 40% 1 05.03.2027 -
Alan Tsaraev Arsenal Tula Active 99 / 98 40% 1 04.03.2027 -
Dmitry Prokhorov Rubin Active 69 / 64 40% 1 01.03.2027 -
Lucas Reynaud Stade Brestois Active 83 / 89 40% 1 01.03.2027 -